Location: Unspecified
(28.0638°N, 0.0000°E)
Time: 05:01:12
(UTC+00:00)

Meteor 1-24 - Visible Passes

Search period start: 04 April 2026 00:00
Search period end: 14 April 2026 00:00
Orbit: 827 x 878 km, 81.3° (Epoch: 29 March)

Date Brightness Start Highest point End Pass type
(mag) Time Alt. Az. Time Alt. Az. Time Alt. Az.
4 Apr 7.9 20:14:18 10° WNW 20:15:30 11° W 20:16:42 10° W visible
5 Apr 7.8 20:02:12 10° WNW 20:04:11 12° W 20:06:10 10° WSW visible
6 Apr 7.7 19:50:21 10° WNW 19:52:52 13° W 19:55:23 10° WSW visible
7 Apr 7.7 19:38:37 10° NW 19:41:33 14° W 19:44:30 10° WSW visible
8 Apr 7.7 19:26:57 10° NW 19:30:13 16° W 19:33:31 10° SW visible
9 Apr 7.6 19:15:19 10° NW 19:18:54 17° W 19:22:30 10° SW visible
10 Apr 7.6 19:03:44 10° NW 19:07:34 19° W 19:11:26 10° SW visible
11 Apr 7.6 18:52:10 10° NW 18:56:15 21° W 19:00:22 10° SW visible
12 Apr 7.6 18:40:38 10° NW 18:44:55 23° W 18:49:14 10° SW visible
